When you browse on this site, cookies collect data to enhance your experience and personalize the content and advertising you see.
Visit our Privacy Policy to learn more. By continuing to use the site, you agree to this use of cookies and data.
  • In Lithuania
  • List of Countries
  • For 7 days
  • Water Temperature
  • Satellite Maps
  • Weather Map
  • Weather Widgets
  • user-avatar
    Login

    Hourly Weather Cichow

    Today, 20 February, Wednesday

    Time Temperature Precipitation Wind Pressure Humidity
    00:00 +3°C° 0 mm 6 mps 752 mmHg 86%
    01:00 +2°C° 0 mm 5 mps 752 mmHg 86%
    02:00 +2°C° 0 mm 5 mps 752 mmHg 87%
    03:00 +2°C° 0 mm 5 mps 752 mmHg 89%
    04:00 +2°C° 0 mm 6 mps 752 mmHg 90%
    05:00 +2°C° 0 mm 6 mps 752 mmHg 89%
    06:00 +2°C° 0 mm 6 mps 753 mmHg 87%
    07:00 +2°C° 0 mm 6 mps 753 mmHg 85%
    08:00 +2°C° 0 mm 6 mps 753 mmHg 82%
    09:00 +3°C° 0 mm 6 mps 754 mmHg 78%
    10:00 +3°C° 0 mm 7 mps 754 mmHg 75%
    11:00 +3°C° 0 mm 7 mps 755 mmHg 73%
    12:00 +4°C° 0 mm 7 mps 755 mmHg 71%
    13:00 +4°C° 0 mm 7 mps 755 mmHg 69%
    14:00 +4°C° 0.1 mm 7 mps 755 mmHg 71%
    15:00 +4°C° 0.1 mm 6 mps 755 mmHg 72%
    16:00 +4°C° 0.1 mm 6 mps 756 mmHg 74%
    17:00 +3°C° 0 mm 5 mps 756 mmHg 75%
    18:00 +3°C° 0 mm 5 mps 756 mmHg 76%
    19:00 +3°C° 0 mm 5 mps 757 mmHg 77%
    20:00 +4°C° 0 mm 4 mps 757 mmHg 79%
    21:00 +4°C° 0 mm 4 mps 757 mmHg 80%
    22:00 +4°C° 0 mm 4 mps 757 mmHg 82%
    23:00 +4°C° 0 mm 3 mps 758 mmHg 83%

    Tomorrow, 21 February, Thursday

    Time Temperature Precipitation Wind Pressure Humidity
    00:00 +4°C° 0 mm 3 mps 758 mmHg 85%
    01:00 +4°C° 0 mm 3 mps 758 mmHg 86%
    02:00 +4°C° 0 mm 3 mps 758 mmHg 88%
    03:00 +3°C° 0 mm 3 mps 758 mmHg 90%
    04:00 +3°C° 0 mm 3 mps 758 mmHg 92%
    05:00 +3°C° 0.1 mm 4 mps 758 mmHg 91%
    06:00 +3°C° 0.1 mm 4 mps 758 mmHg 91%
    07:00 +3°C° 0.1 mm 4 mps 757 mmHg 90%
    08:00 +3°C° 0.3 mm 5 mps 757 mmHg 88%
    09:00 +3°C° 0.3 mm 5 mps 757 mmHg 87%
    10:00 +3°C° 0.3 mm 5 mps 757 mmHg 86%
    11:00 +3°C° 0.7 mm 6 mps 757 mmHg 85%
    12:00 +3°C° 0.7 mm 6 mps 756 mmHg 85%
    13:00 +4°C° 0.7 mm 7 mps 756 mmHg 85%
    14:00 +4°C° 1.1 mm 6 mps 756 mmHg 86%
    15:00 +3°C° 1.1 mm 6 mps 755 mmHg 87%
    16:00 +3°C° 1.1 mm 6 mps 755 mmHg 87%
    17:00 +4°C° 0.5 mm 6 mps 755 mmHg 88%
    18:00 +4°C° 0.5 mm 6 mps 755 mmHg 89%
    19:00 +4°C° 0.5 mm 6 mps 755 mmHg 90%
    20:00 +4°C° 0.2 mm 6 mps 755 mmHg 90%
    21:00 +4°C° 0.2 mm 6 mps 754 mmHg 91%
    22:00 +5°C° 0.2 mm 6 mps 754 mmHg 91%
    23:00 +5°C° 0.9 mm 6 mps 754 mmHg 91%

    Day after tomorrow, 22 February, Friday

    Time Temperature Precipitation Wind Pressure Humidity
    00:00 +5°C° 0.9 mm 6 mps 755 mmHg 91%
    01:00 +5°C° 0.9 mm 6 mps 755 mmHg 91%
    02:00 +4°C° 0.6 mm 6 mps 755 mmHg 90%
    03:00 +3°C° 0.6 mm 6 mps 756 mmHg 89%
    04:00 +3°C° 0.6 mm 6 mps 756 mmHg 89%
    05:00 0°C° 0.1 mm 7 mps 758 mmHg 85%
    06:00 -1°C° 0.1 mm 7 mps 759 mmHg 80%
    07:00 -4°C° 0.1 mm 8 mps 760 mmHg 76%
    08:00 -3°C° 0 mm 7 mps 762 mmHg 70%
    09:00 -3°C° 0 mm 7 mps 763 mmHg 64%
    10:00 -3°C° 0 mm 7 mps 764 mmHg 58%
    11:00 -2°C° 0 mm 6 mps 765 mmHg 55%
    12:00 -2°C° 0 mm 6 mps 766 mmHg 51%
    13:00 -2°C° 0 mm 6 mps 767 mmHg 48%
    14:00 -1°C° 0 mm 5 mps 767 mmHg 48%
    15:00 -1°C° 0 mm 5 mps 768 mmHg 47%
    16:00 -2°C° 0 mm 5 mps 768 mmHg 47%
    17:00 -2°C° 0 mm 5 mps 769 mmHg 50%
    18:00 -3°C° 0 mm 4 mps 769 mmHg 53%
    19:00 -4°C° 0 mm 4 mps 770 mmHg 57%
    20:00 -4°C° 0 mm 4 mps 770 mmHg 55%
    21:00 -4°C° 0 mm 4 mps 771 mmHg 54%
    22:00 -5°C° 0 mm 4 mps 771 mmHg 53%
    23:00 -5°C° 0 mm 4 mps 772 mmHg 50%

    23 February, Saturday

    Time Temperature Precipitation Wind Pressure Humidity
    00:00 -5°C° 0 mm 4 mps 772 mmHg 47%
    01:00 -5°C° 0 mm 4 mps 772 mmHg 45%
    02:00 -5°C° 0 mm 3 mps 772 mmHg 43%
    03:00 -5°C° 0 mm 3 mps 772 mmHg 41%
    04:00 -4°C° 0 mm 2 mps 772 mmHg 39%
    05:00 -4°C° 0 mm 2 mps 772 mmHg 40%
    06:00 -4°C° 0 mm 2 mps 772 mmHg 40%
    07:00 -4°C° 0 mm 2 mps 773 mmHg 40%
    08:00 -4°C° 0 mm 2 mps 773 mmHg 38%
    09:00 -3°C° 0 mm 2 mps 773 mmHg 35%
    10:00 -3°C° 0 mm 2 mps 773 mmHg 33%
    11:00 -2°C° 0 mm 2 mps 773 mmHg 31%
    12:00 0°C° 0 mm 1 mps 773 mmHg 29%
    13:00 +1°C° 0 mm 1 mps 772 mmHg 26%
    14:00 +1°C° 0 mm 1 mps 772 mmHg 27%
    15:00 +1°C° 0 mm 1 mps 772 mmHg 28%
    16:00 +1°C° 0 mm 1 mps 772 mmHg 29%
    17:00 0°C° 0 mm 1 mps 772 mmHg 32%
    18:00 0°C° 0 mm 1 mps 772 mmHg 35%
    19:00 -2°C° 0 mm 0 mps 772 mmHg 38%
    20:00 -2°C° 0 mm 0 mps 771 mmHg 38%
    21:00 -1°C° 0 mm 0 mps 771 mmHg 37%
    22:00 -1°C° 0 mm 0 mps 771 mmHg 37%
    23:00 -1°C° 0 mm 0 mps 771 mmHg 37%

    24 February, Sunday

    Time Temperature Precipitation Wind Pressure Humidity
    00:00 0°C° 0 mm 1 mps 771 mmHg 37%
    01:00 0°C° 0 mm 1 mps 771 mmHg 38%
    02:00 0°C° 0 mm 1 mps 771 mmHg 38%
    03:00 0°C° 0 mm 1 mps 770 mmHg 39%
    04:00 0°C° 0 mm 1 mps 770 mmHg 39%
    05:00 -2°C° 0 mm 2 mps 770 mmHg 40%
    06:00 -2°C° 0 mm 2 mps 770 mmHg 40%
    07:00 -2°C° 0 mm 2 mps 770 mmHg 40%
    08:00 -1°C° 0 mm 2 mps 770 mmHg 38%
    09:00 +1°C° 0 mm 2 mps 770 mmHg 36%
    10:00 +1°C° 0 mm 2 mps 770 mmHg 33%
    11:00 +2°C° 0 mm 2 mps 770 mmHg 33%
    12:00 +2°C° 0 mm 3 mps 769 mmHg 33%
    13:00 +3°C° 0 mm 3 mps 769 mmHg 33%
    14:00 +4°C° 0 mm 2 mps 769 mmHg 39%
    15:00 +3°C° 0 mm 2 mps 768 mmHg 44%
    16:00 +3°C° 0 mm 2 mps 768 mmHg 49%
    17:00 +2°C° 0 mm 2 mps 768 mmHg 52%
    18:00 +1°C° 0 mm 2 mps 768 mmHg 56%
    19:00 -1°C° 0 mm 2 mps 769 mmHg 59%
    20:00 -1°C° 0 mm 2 mps 769 mmHg 60%
    21:00 +1°C° 0 mm 1 mps 769 mmHg 61%
    22:00 +1°C° 0 mm 1 mps 769 mmHg 61%
    23:00 -1°C° 0 mm 2 mps 769 mmHg 62%

    25 February, Monday

    Time Temperature Precipitation Wind Pressure Humidity
    00:00 -1°C° 0 mm 2 mps 769 mmHg 63%
    01:00 -1°C° 0 mm 2 mps 768 mmHg 63%
    02:00 -1°C° 0 mm 2 mps 768 mmHg 64%
    03:00 -1°C° 0 mm 2 mps 768 mmHg 65%
    04:00 -1°C° 0 mm 3 mps 768 mmHg 66%
    05:00 -1°C° 0 mm 3 mps 768 mmHg 67%
    06:00 -1°C° 0 mm 3 mps 768 mmHg 67%
    07:00 -1°C° 0 mm 3 mps 768 mmHg 68%
    08:00 0°C° 0 mm 3 mps 768 mmHg 67%
    09:00 +1°C° 0 mm 3 mps 768 mmHg 65%
    10:00 +3°C° 0 mm 4 mps 768 mmHg 64%
    11:00 +4°C° 0 mm 4 mps 768 mmHg 66%
    12:00 +5°C° 0 mm 4 mps 767 mmHg 68%
    13:00 +6°C° 0 mm 5 mps 767 mmHg 70%
    14:00 +6°C° 0 mm 5 mps 767 mmHg 70%
    15:00 +6°C° 0 mm 4 mps 767 mmHg 69%
    16:00 +6°C° 0 mm 4 mps 767 mmHg 68%
    17:00 +5°C° 0 mm 4 mps 767 mmHg 71%
    18:00 +4°C° 0 mm 4 mps 768 mmHg 73%
    19:00 +3°C° 0 mm 4 mps 768 mmHg 76%
    20:00 +1°C° 0 mm 4 mps 768 mmHg 79%
    21:00 +2°C° 0 mm 3 mps 768 mmHg 82%
    22:00 +1°C° 0 mm 3 mps 768 mmHg 84%
    23:00 +1°C° 0 mm 3 mps 768 mmHg 85%
    Show more